weather.gov     
National Weather Service

Regional Weather Roundup
NWS Homepage
This page is being discontinued on March 12, 2014.
The same data is available at this site. Please update your bookmarks.
Thank you, and we apologize for the inconvenience.
Please send an email to SR-SRH.Webmaster@noaa.gov with any concerns.


Current Version
Previous Version:    01  02  03  04  05  06  07  08  09  10  11  12  13  14  15  16  17  18  19  20  21  22  23  24  25  26  
[Printable]
128
ASUS46 KSEW 310710
RWRWA

WASHINGTON REGIONAL WEATHER ROUNDUP
NATIONAL WEATHER SERVICE SEATTLE WA
1200 AM PDT THU JUL 31 2014

NOTE:"FAIR" INDICATES FEW OR NO CLOUDS BELOW 12,000 FEET WITH NO
SIGNIFICANT WEATHER AND/OR OBSTRUCTIONS TO VISIBILITY.

WAZ505-507>509-310800-
SEATTLE, TACOMA, EVERETT, AND VICINITY

CITY           SKY/WX    TMP DP  RH WIND       PRES   REMARKS
EVERETT        CLEAR     63  43  48 NE7       30.12S
BOEING FIELD   CLEAR     70  45  40 CALM      30.10S
RENTON         CLEAR     68  52  56 NW7       30.09S
SEATAC AIRPORT CLEAR     69  46  43 NE13      30.11S
JBLM-MCCHORD   CLEAR     68  51  55 CALM      30.10R
PUYALLUP       FAIR      59  55  88 CALM      30.11R
JBLM-FT LEWIS  CLEAR     66  51  57 W2        30.09R
TACOMA NARROWS CLEAR     66  49  54 N8        30.10R
$$

WAZ001-503-506-510-514-515-310800-
NORTH INTERIOR

CITY           SKY/WX    TMP DP  RH WIND       PRES   REMARKS
BELLINGHAM     CLEAR     63  52  67 S3        30.09R
FRIDAY HARBOR  CLEAR     52  47  83 CALM      30.10R
EASTSOUND      CLEAR     59  50  72 CALM      30.07R
PORT ANGELES   CLEAR     57  47  69 NW7       30.12S
NAS WHIDBEY    CLEAR     58  49  72 SW6       30.11S
BURLINGTON     CLEAR     55  46  71 SE6       30.11S
$$

WAZ020-022-039-040-504-511-512-310800-
SOUTHWEST INTERIOR

CITY           SKY/WX    TMP DP  RH WIND       PRES   REMARKS
SHELTON        CLEAR     64  54  69 W6        30.08S
OLYMPIA        CLEAR     62  52  69 SE3       30.09R
CHEHALIS       FAIR      63  59  88 CALM      30.09R
KELSO          CLEAR     66  52  59 CALM      30.12R
VANCOUVER      CLEAR     72  54  53 NW7       30.04R
SCAPPOOSE, OR  CLEAR     71  52  50 N10       30.05R
PORTLAND, OR   CLEAR     72  56  57 NW10      30.04S
$$

WAZ021-516-517-310800-
WASHINGTON COAST

CITY           SKY/WX    TMP DP  RH WIND       PRES   REMARKS
FORKS          CLEAR     55  51  86 VRB3      30.16S
HOQUIAM        CLEAR     59  47  64 SW6       30.12R
ASTORIA, OR    CLEAR     55  49  80 E5        30.12F
$$

WAZ019-023-024-040-518-519-310800-
CASCADE MOUNTAINS AND COLUMBIA GORGE

CITY           SKY/WX    TMP DP  RH WIND       PRES   REMARKS
STAMPEDE PASS  NOT AVBL
TROUTDALE, OR  CLEAR     71  57  61 W3        30.03R
THE DALLES, OR CLEAR     80  59  48 NW17      29.95R
$$

WAZ026-027-041>044-520-521-310800-
EAST SLOPES

CITY           SKY/WX    TMP DP  RH WIND       PRES   REMARKS
OMAK           CLEAR     78  39  24 NW9       29.97R
WENATCHEE      CLEAR     83  49  30 NW20      29.99R
ELLENSBURG     CLEAR     74  51  44 NW13G22   30.03R
YAKIMA         CLEAR     80  42  25 NW10      29.98S
$$

WAZ028-034-035-310800-
COLUMBIA BASIN

CITY           SKY/WX    TMP DP  RH WIND       PRES   REMARKS
EPHRATA        CLEAR     86  38  18 NW18      29.93S
MOSES LAKE     CLEAR     78  39  24 CALM      29.95R
PASCO          MOCLDY    75  51  43 N6        29.91R
HERMISTON, OR  MOCLDY    85  48  27 SW13      29.92R
$$

WAZ036>038-310800-
NORTHEAST WASHINGTON

CITY           SKY/WX    TMP DP  RH WIND       PRES   REMARKS
SPOKANE GEIGER PTCLDY    78  31  17 SW8       30.02S
SPOKANE FELTS  CLEAR     71  39  31 CALM      30.01R
FAIRCHILD AFB  NOT AVBL
COEURDALENE,ID CLEAR     72  54  53 S3        30.03R
DEER PARK      CLEAR     64  43  46 CALM      30.02R
$$

WAZ029>033-310800-
SOUTHEAST WASHINGTON

CITY           SKY/WX    TMP DP  RH WIND       PRES   REMARKS
PULLMAN        PTCLDY    62  47  57 CALM      30.07S
LEWISTON, ID   PTCLDY    82  41  23 S5        29.98R
WALLA WALLA    MOCLDY    84  45  25 E10       29.95S
PENDLETON, OR  CLOUDY    80  43  26 S6        29.98R
$$




U.S. Dept. of Commerce
NOAA National Weather Service
1325 East West Highway
Silver Spring, MD 20910
E-mail: w-nws.webmaster@noaa.gov
Page last modified: May 16, 2007
NATIONAL WEATHER SERVICE: for Safety, for Work, for Fun - FOR LIFE